Location: Corcelles
(46.1547°N, 4.7234°E)
Time: 04:44:24
(UTC+00:00)

Tsikada Rocket - Pass Details

Date: 14 July 2020
Orbit: 959 x 1008 km, 82.9° (Epoch: 06 August)

Event Time Altitude Azimuth Distance (km) Brightness Sun altitude
Rises 01:30:32 0° 352° (N) 3,745 8.0 -18.3°
Reaches altitude 10° 01:33:06 10° 355° (N) 2,794 7.3 -18.1°
Maximum altitude 01:39:32 74° 80° (E) 1,049 4.2 -17.6°
Enters shadow 01:45:05 14° 165° (SSE) 2,466 5.7 -17.1°
